Location: Middle Street
(51.7167°N, 0.0333°E)
Time: 01:18:50
(UTC+00:00)

COSMOS 2406 - Pass Details

Date: 20 January 2021
Orbit: 841 x 866 km, 71.0° (Epoch: 28 February)

Event Time Altitude Azimuth Distance (km) Brightness Sun altitude
Rises 19:06:44 0° 330° (NNW) 3,460 6.8 -24.1°
Reaches altitude 10° 19:09:15 10° 333° (NNW) 2,520 5.9 -24.5°
Maximum altitude 19:15:01 63° 55° (NE) 965 3.2 -25.3°
Enters shadow 19:15:01 63° 55° (NE) 965 3.2 -25.4°
